FW2145 Weather Reports


time (UTC)temp
F
wind
direction
speed
knots
gust
knots
rain 1hr
in
rain 24hr
in
rain mn
in
humidity
%
barometer
mb
20260510164504 68 240 1.7 2.6 0.00 0.22 0.00 65 976.9
20260510164004 68 248 1.7 2.6 0.00 0.22 0.00 66 976.9
20260510163504 69 225 2.6 4.3 0.00 0.22 0.00 65 976.8
20260510163004 70 232 2.6 4.3 0.00 0.22 0.00 63 976.8
20260510162503 71 193 1.7 4.3 0.00 0.22 0.00 64 976.6
20260510162004 71 218 1.7 5.2 0.00 0.22 0.00 61 976.6
20260510161504 72 251 2.6 4.3 0.00 0.22 0.00 61 976.6
20260510161004 72 270 2.6 2.6 0.00 0.22 0.00 64 976.5
20260510160504 71 214 2.6 6.1 0.00 0.22 0.00 65 976.5
20260510160004 72 206 2.6 5.2 0.00 0.22 0.00 65 976.7
20260510155504 71 136 1.7 4.3 0.00 0.22 0.00 66 976.7
20260510155004 69 224 1.7 2.6 0.00 0.22 0.00 71 976.7
20260510154004 67 207 0.9 0.9 0.00 0.22 0.00 75 976.8
20260510153505 66 162 0.0 0.9 0.00 0.22 0.00 78 976.7
20260510153004 67 202 1.7 1.7 0.00 0.22 0.00 77 976.7
20260510152504 68 245 0.9 2.6 0.00 0.22 0.00 76 976.4
20260510152004 68 160 0.9 1.7 0.00 0.22 0.00 76 976.4
20260510151004 69 196 1.7 1.7 0.00 0.22 0.00 74 976.3
20260510150504 68 112 1.7 1.7 0.00 0.22 0.00 75 976.3
20260510150004 69 180 1.7 2.6 0.00 0.22 0.00 73 976.3
20260510145004 72 126 2.6 2.6 0.00 0.22 0.00 69 976.3
20260510144504 70 242 1.7 2.6 0.00 0.22 0.00 73 976.4
20260510144004 72 215 1.7 2.6 0.00 0.22 0.00 69 976.4
20260510143505 71 158 1.7 2.6 0.00 0.23 0.00 71 976.3
20260510143004 69 203 0.9 2.6 0.00 0.23 0.00 74 976.3
20260510142504 70 204 1.7 1.7 0.00 0.23 0.00 74 976.3
20260510142004 66 225 2.6 2.6 0.00 0.23 0.00 78 976.3
20260510141504 68 193 1.7 2.6 0.00 0.23 0.00 77 976.3
20260510141004 66 195 1.7 1.7 0.00 0.23 0.00 80 976.4
20260510140504 65 233 1.7 4.3 0.00 0.24 0.00 80 976.4
20260510140005 66 225 1.7 2.6 0.00 0.24 0.00 80 976.2
20260510135504 65 170 0.9 1.7 0.00 0.24 0.00 83 976.2
20260510134505 64 168 1.7 1.7 0.00 0.24 0.00 82 976.1
20260510134004 64 241 1.7 1.7 0.00 0.24 0.00 82 976.1
20260510133504 63 158 1.7 1.7 0.00 0.24 0.00 83 976.2
20260510133004 62 225 2.6 2.6 0.00 0.24 0.00 85 976.2
20260510132504 62 202 1.7 2.6 0.00 0.24 0.00 85 976.2
20260510132004 61 176 1.7 1.7 0.00 0.24 0.00 87 976.2
20260510131004 60 191 0.9 1.7 0.00 0.24 0.00 88 976.3
20260510130504 59 212 0.0 0.9 0.00 0.24 0.00 89 976.3
20260510130004 58 195 0.9 1.7 0.00 0.24 0.00 90 976.3
20260510125504 58 225 1.7 2.6 0.00 0.24 0.00 90 976.3
20260510125004 58 198 0.9 1.7 0.00 0.24 0.00 91 976.2
20260510124504 57 225 0.9 1.7 0.00 0.24 0.00 92 976.1
20260510124004 56 180 0.0 1.7 0.00 0.24 0.00 92 976.1
20260510123504 56 120 0.9 1.7 0.00 0.24 0.00 93 976.0
20260510123004 55 180 0.9 1.7 0.00 0.24 0.00 94 976.0
20260510122504 55 180 0.0 0.0 0.00 0.24 0.00 95 975.8
20260510122004 54 180 0.0 0.0 0.00 0.24 0.00 96 975.8
20260510121504 54 218 0.0 0.0 0.00 0.24 0.00 96 975.8
20260510121004 53 206 0.9 0.9 0.00 0.24 0.00 97 975.8
20260510120004 53 181 0.9 0.9 0.00 0.24 0.00 98 975.6
20260510115504 52 180 0.0 0.0 0.00 0.24 0.00 98 975.6
20260510115004 52 157 0.0 0.9 0.00 0.24 0.00 98 975.5
20260510114504 52 186 0.0 0.0 0.00 0.24 0.00 98 975.5
20260510114004 51 215 0.0 0.0 0.00 0.24 0.00 98 975.5
20260510113504 51 180 0.0 0.0 0.00 0.24 0.00 98 975.6
20260510113005 51 180 0.0 0.0 0.00 0.24 0.00 98 975.6
20260510112504 51 180 0.0 0.0 0.00 0.24 0.00 98 975.4
20260510112004 50 180 0.0 0.0 0.00 0.24 0.00 98 975.4
20260510111504 50 190 0.0 0.0 0.00 0.24 0.00 98 975.3
20260510111003 50 180 0.0 0.0 0.00 0.24 0.00 98 975.3
20260510110503 50 180 0.0 0.0 0.00 0.24 0.00 98 975.3
20260510110004 50 180 0.0 0.0 0.00 0.24 0.00 98 975.1
20260510105504 50 180 0.0 0.0 0.00 0.24 0.00 98 975.1
20260510105004 50 180 0.0 0.0 0.00 0.24 0.00 98 974.9
20260510104504 50 180 0.0 0.0 0.00 0.24 0.00 98 974.9
20260510104005 50 180 0.0 0.0 0.00 0.24 0.00 98 974.9
20260510103504 50 180 0.0 0.0 0.00 0.24 0.00 98 974.9
20260510103004 50 180 0.0 0.0 0.00 0.24 0.00 98 974.9
20260510102504 50 180 0.0 0.0 0.00 0.24 0.00 98 974.9
20260510102004 50 180 0.0 0.0 0.00 0.24 0.00 98 974.9
20260510101004 50 202 0.0 0.0 0.00 0.24 0.00 98 974.8
20260510100004 50 180 0.0 0.0 0.00 0.24 0.00 98 974.7
20260510095504 50 180 0.0 0.0 0.00 0.24 0.00 98 974.7
20260510095004 50 180 0.0 0.0 0.00 0.24 0.00 98 974.6
20260510094504 50 180 0.0 0.0 0.00 0.24 0.00 98 974.6
20260510094004 50 180 0.0 0.0 0.00 0.24 0.00 98 974.6
20260510093504 50 183 0.0 0.0 0.00 0.24 0.00 98 974.5
20260510093003 50 225 0.0 0.0 0.00 0.24 0.00 98 974.5
20260510092504 50 217 0.0 0.0 0.00 0.24 0.00 98 974.4
20260510092004 50 202 0.0 0.0 0.00 0.24 0.00 98 974.4
20260510091504 50 202 0.0 0.0 0.00 0.24 0.00 98 974.4
20260510091004 50 202 0.0 0.0 0.00 0.24 0.00 98 974.3
20260510090004 50 180 0.0 0.0 0.00 0.24 0.00 98 974.3
20260510085004 50 202 0.0 0.0 0.00 0.24 0.00 98 974.4
20260510084004 50 180 0.0 0.0 0.00 0.24 0.00 98 974.4
20260510083504 50 225 0.0 0.0 0.00 0.24 0.00 98 974.4
20260510083004 50 225 0.9 1.7 0.00 0.24 0.00 98 974.4
20260510082004 50 180 0.0 0.0 0.00 0.24 0.00 98 974.5
20260510081504 50 180 0.0 0.0 0.00 0.24 0.00 98 974.5
20260510081005 50 180 0.0 0.0 0.00 0.24 0.00 98 974.4
20260510080503 50 158 0.0 0.0 0.00 0.24 0.00 98 974.4
20260510080004 50 176 0.0 0.0 0.00 0.24 0.00 98 974.7
20260510075004 51 158 0.0 0.0 0.00 0.24 0.00 98 975.0
20260510074503 51 158 0.0 0.0 0.00 0.24 0.00 98 975.0
20260510074004 51 158 0.0 0.0 0.00 0.24 0.00 98 975.0
20260510073504 51 180 0.0 0.0 0.00 0.24 0.00 98 975.1
20260510073004 51 135 0.0 0.0 0.00 0.24 0.00 98 975.1
20260510072504 51 180 0.0 0.0 0.00 0.24 0.00 98 975.2
20260510072004 51 180 0.0 0.0 0.00 0.24 0.00 98 975.2
20260510071504 51 180 0.0 0.0 0.00 0.24 0.00 98 975.2
20260510071004 51 180 0.0 0.0 0.00 0.24 0.00 98 975.3
20260510070504 51 180 0.0 0.0 0.00 0.24 0.00 98 975.3
20260510065504 51 158 0.0 0.0 0.00 0.24 0.00 98 975.2
20260510064504 51 231 0.9 1.7 0.00 0.24 0.00 98 974.9
20260510064004 51 148 0.0 0.0 0.00 0.24 0.00 98 974.9
20260510063004 50 270 0.0 0.0 0.00 0.24 0.00 98 974.7
20260510062004 51 158 0.0 0.0 0.00 0.24 0.00 98 974.7
20260510061504 51 158 0.0 0.0 0.00 0.24 0.00 98 974.7
20260510061004 51 158 0.0 0.0 0.00 0.24 0.00 98 974.7
20260510060503 51 225 0.0 0.0 0.00 0.24 0.00 98 974.7
20260510060004 51 180 0.0 0.0 0.00 0.24 0.00 98 974.7
20260510055504 51 150 0.0 1.7 0.00 0.24 0.00 98 974.7
20260510054005 51 215 0.0 0.0 0.00 0.24 0.00 98 974.9
20260510053504 51 210 0.0 1.7 0.00 0.24 0.00 98 974.8
20260510053004 51 212 0.9 1.7 0.00 0.24 0.00 98 974.8
20260510052005 51 180 0.0 0.0 0.00 0.24 0.00 98 974.8
20260510051004 51 189 0.0 0.0 0.00 0.24 0.00 98 974.7
20260510050504 51 202 0.0 0.0 0.00 0.24 0.00 98 974.7
20260510050004 51 228 0.0 0.0 0.00 0.24 0.00 98 974.5
20260510045504 51 213 0.0 0.0 0.00 0.24 0.00 98 974.5
20260510045003 51 150 0.0 0.0 0.00 0.24 0.00 98 974.5
20260510044504 51 202 0.0 0.9 0.00 0.24 0.00 98 974.6
20260510044004 51 206 0.0 0.0 0.00 0.24 0.00 98 974.6
20260510043504 51 202 0.0 0.0 0.00 0.24 0.00 98 974.5
20260510043004 51 180 0.0 0.0 0.00 0.24 0.00 97 974.5
20260510042504 51 180 0.0 0.0 0.00 0.24 0.00 97 974.5
20260510042004 51 180 0.0 0.0 0.00 0.24 0.00 97 974.5
20260510041504 51 145 0.0 0.0 0.00 0.24 0.00 97 974.5
20260510041004 51 187 0.0 1.7 0.00 0.24 0.00 97 974.5
20260510040504 51 216 0.0 1.7 0.00 0.24 0.00 97 974.5
20260510040004 51 190 0.0 1.7 0.00 0.24 0.00 97 974.4
20260510035504 51 179 0.0 1.7 0.00 0.24 0.24 97 974.4
20260510034004 51 182 0.0 0.0 0.00 0.24 0.24 97 974.3
20260510033504 51 225 0.0 0.9 0.00 0.24 0.24 97 974.2
20260510033004 51 162 0.0 0.0 0.00 0.24 0.24 97 974.2
20260510032004 51 225 0.9 1.7 0.00 0.24 0.24 97 974.1
20260510031504 50 180 0.0 0.0 0.00 0.24 0.24 97 974.1
20260510031004 50 158 0.0 0.0 0.00 0.24 0.24 96 974.0
20260510030504 49 180 0.0 0.0 0.00 0.24 0.24 96 974.0
20260510030004 49 158 0.0 0.0 0.00 0.24 0.24 95 974.2
20260510025505 49 158 0.0 0.0 0.00 0.24 0.24 95 974.2
20260510025004 48 158 0.0 0.0 0.00 0.24 0.24 95 974.2
20260510024004 48 165 0.0 0.0 0.00 0.24 0.24 95 974.2
20260510023504 48 158 0.0 0.0 0.00 0.24 0.24 95 974.3
20260510023004 49 180 0.0 0.0 0.00 0.24 0.24 95 974.3
20260510022504 49 180 0.0 0.0 0.00 0.24 0.24 95 974.3
20260510022004 49 180 0.0 0.0 0.00 0.24 0.24 95 974.3
20260510021504 49 180 0.0 0.0 0.00 0.24 0.24 95 974.3
20260510021004 49 158 0.0 0.0 0.00 0.24 0.24 95 974.2
20260510020504 49 168 0.0 0.0 0.00 0.24 0.24 95 974.2
20260510020005 49 180 0.0 0.0 0.00 0.24 0.24 95 974.0
20260510015504 50 180 0.0 0.0 0.00 0.24 0.24 95 974.0
20260510015004 50 158 0.0 0.0 0.00 0.24 0.24 95 974.0
20260510014504 50 168 0.0 0.0 0.00 0.24 0.24 94 974.0
20260510014004 50 179 0.0 0.0 0.00 0.24 0.24 94 974.0
20260510013504 50 158 0.0 0.0 0.00 0.24 0.24 94 974.0
20260510013004 50 158 0.0 0.0 0.00 0.24 0.24 94 974.0
20260510012004 50 180 0.0 0.0 0.00 0.24 0.24 94 973.9
20260510011504 50 180 0.0 0.0 0.00 0.24 0.24 94 973.9
20260510011004 50 176 0.0 0.0 0.00 0.24 0.24 94 973.8
20260510010504 50 158 0.0 0.0 0.00 0.24 0.24 94 973.8
20260510010004 50 158 0.0 0.0 0.00 0.24 0.24 94 973.8
20260510005504 50 158 0.0 0.0 0.00 0.24 0.24 94 973.8
20260510005004 50 158 0.0 0.0 0.00 0.24 0.24 95 973.7
20260510004504 50 158 0.0 0.0 0.00 0.24 0.24 95 973.7
20260510004004 51 180 0.0 0.0 0.00 0.24 0.24 95 973.7
20260510003503 51 180 0.0 0.0 0.00 0.24 0.24 94 973.4
20260510003004 51 180 0.0 0.0 0.00 0.24 0.24 94 973.4
20260510002004 52 180 0.0 0.0 0.00 0.24 0.24 93 973.2
20260510001005 52 180 0.0 0.0 0.00 0.24 0.24 93 973.1
20260510000504 53 160 0.0 0.0 0.00 0.24 0.24 93 973.1
20260510000004 53 180 0.0 0.0 0.00 0.24 0.24 93 973.0
20260509235504 53 170 0.0 0.0 0.00 0.24 0.24 92 973.0
20260509235004 54 180 0.0 0.0 0.00 0.24 0.24 92 973.0
20260509234504 54 112 0.0 0.0 0.00 0.24 0.24 92 972.9
20260509233504 54 112 0.0 0.9 0.00 0.24 0.24 92 973.0
20260509232504 55 166 0.0 0.9 0.00 0.24 0.24 92 972.8
20260509232004 55 158 0.0 1.7 0.00 0.24 0.24 91 972.8
20260509231504 55 167 0.0 1.7 0.00 0.24 0.24 91 972.8
20260509230504 56 184 0.9 0.9 0.00 0.24 0.24 91 972.8
20260509230004 56 180 1.7 1.7 0.00 0.24 0.24 91 972.8
20260509225504 56 185 0.9 1.7 0.00 0.24 0.24 91 972.8
20260509225004 56 202 1.7 2.6 0.00 0.24 0.24 91 972.9
20260509224504 56 135 0.9 1.7 0.00 0.24 0.24 91 972.9
20260509224004 57 180 0.0 1.7 0.00 0.24 0.24 91 972.9
20260509223504 57 220 0.9 0.9 0.00 0.24 0.24 91 973.0
20260509223004 57 212 0.9 1.7 0.00 0.24 0.24 91 973.0
20260509222503 57 147 0.9 1.7 0.00 0.24 0.24 91 972.9
20260509222004 57 112 0.9 1.7 0.00 0.24 0.24 91 972.9
20260509221504 56 179 0.9 0.9 0.00 0.24 0.24 91 972.9
20260509220004 57 179 1.7 1.7 0.00 0.24 0.24 92 973.2
20260509215504 57 124 0.0 0.0 0.00 0.24 0.24 93 973.2
20260509214504 56 214 0.0 0.9 0.00 0.24 0.24 93 973.3
20260509214004 56 145 0.0 0.9 0.00 0.24 0.24 93 973.3
20260509213504 56 202 0.9 1.7 0.00 0.24 0.24 93 973.4
20260509213004 56 180 0.0 1.7 0.00 0.24 0.24 93 973.4
20260509212504 57 229 1.7 2.6 0.00 0.24 0.24 93 973.4
20260509212004 56 129 0.0 1.7 0.00 0.24 0.24 93 973.4
20260509211004 55 209 0.9 1.7 0.00 0.24 0.24 94 973.3
20260509210004 54 186 0.0 0.0 0.00 0.24 0.24 93 973.4
20260509205504 54 199 0.0 0.0 0.01 0.24 0.24 93 973.4
20260509204004 54 158 0.0 0.0 0.02 0.24 0.24 93 973.5
20260509203504 54 180 0.0 0.0 0.02 0.24 0.24 93 973.5
20260509203004 54 180 0.0 0.0 0.03 0.24 0.24 93 973.5
20260509202504 54 159 0.0 0.0 0.04 0.24 0.24 93 973.5
20260509202005 54 135 0.0 0.9 0.04 0.24 0.24 93 973.5
20260509201004 54 203 0.0 0.0 0.06 0.24 0.24 94 973.6
20260509200504 54 203 0.0 0.0 0.06 0.24 0.24 94 973.6
20260509200004 53 202 0.9 1.7 0.06 0.24 0.24 94 973.9
20260509195504 53 176 0.0 0.9 0.06 0.23 0.23 94 973.9
20260509195004 53 202 0.0 0.9 0.07 0.23 0.23 94 974.1
20260509194505 53 228 0.9 1.7 0.06 0.22 0.22 94 974.2
20260509194005 53 225 0.9 1.7 0.07 0.22 0.22 94 974.2
20260509193504 53 186 0.9 0.9 0.08 0.22 0.22 94 974.4
20260509193004 53 180 0.0 0.0 0.07 0.21 0.21 94 974.4
20260509192504 53 196 0.0 0.0 0.07 0.20 0.20 94 974.6
20260509191504 53 169 0.0 1.7 0.08 0.20 0.20 93 974.6
20260509191004 53 191 0.9 0.9 0.08 0.18 0.18 93 974.7
20260509190504 53 203 0.9 1.7 0.08 0.18 0.18 93 974.7
20260509190004 53 237 0.9 1.7 0.09 0.18 0.18 93 974.8
20260509185504 53 118 0.9 1.7 0.09 0.17 0.17 93 974.8
20260509185004 53 208 1.7 1.7 0.09 0.16 0.16 93 974.8
20260509184504 53 189 0.9 1.7 0.10 0.16 0.16 93 974.8
20260509184004 53 200 2.6 4.3 0.10 0.15 0.15 93 974.8
20260509183504 53 219 1.7 1.7 0.09 0.14 0.14 94 974.7
20260509183004 53 161 0.9 0.9 0.10 0.14 0.14 94 974.7
20260509182504 53 158 0.0 0.0 0.09 0.13 0.13 94 974.9
20260509182004 53 180 0.0 0.0 0.08 0.12 0.12 94 974.9
20260509181504 53 161 1.7 1.7 0.08 0.12 0.12 93 974.9
20260509181004 53 202 0.0 1.7 0.07 0.10 0.10 93 974.8
20260509180504 53 158 0.9 0.9 0.07 0.10 0.10 93 974.8
20260509180004 53 201 1.7 1.7 0.06 0.09 0.09 93 975.0
20260509175504 53 217 0.9 1.7 0.06 0.08 0.08 93 975.0
20260509175004 53 155 1.7 1.7 0.05 0.07 0.07 92 975.0
20260509174504 54 220 1.7 2.6 0.04 0.06 0.06 92 975.0
20260509174004 54 202 2.6 2.6 0.03 0.05 0.05 92 975.0
20260509173504 54 180 1.7 1.7 0.03 0.05 0.05 92 974.8
20260509173003 54 225 1.7 2.6 0.02 0.04 0.04 92 974.8
20260509172504 54 121 2.6 2.6 0.02 0.04 0.04 92 974.9
20260509172004 54 220 0.9 1.7 0.02 0.04 0.04 92 974.9
20260509171504 54 112 0.9 1.7 0.02 0.04 0.04 91 974.9
20260509171004 54 191 1.7 2.6 0.01 0.03 0.03 90 974.8
20260509170504 55 183 1.7 2.6 0.01 0.03 0.03 90 974.8
20260509170004 55 231 1.7 2.6 0.01 0.03 0.03 90 974.8
20260509165505 55 174 1.7 2.6 0.00 0.02 0.02 90 974.8
20260509165004 55 166 0.0 1.7 0.00 0.02 0.02 90 974.8